Time,TemperatureF,DewpointF,PressureIn,WindDirection,WindDirectionDegrees,WindSpeedMPH,WindSpeedGustMPH,Humidity,HourlyPrecipIn,Conditions,Clouds,dailyrainin,SolarRadiationWatts/m^2,SoftwareType,DateUTC
2013-01-03 00:00:00,23.0,3.0,-100.00,WNW,301,0.0,2.0,41,-99.99,,,0.01,-156.699997,,2013-01-03 08:00:00,
2013-01-03 00:53:00,23.0,3.0,-100.00,WNW,301,0.0,2.0,41,-99.99,,,0.01,-156.699997,,2013-01-03 08:53:00,
2013-01-03 01:00:00,23.0,-4.0,-100.00,WNW,286,0.0,2.0,30,-99.99,,,0.01,-156.699997,,2013-01-03 09:00:00,
2013-01-03 01:53:00,23.0,-4.0,-100.00,WNW,286,0.0,2.0,30,-99.99,,,0.01,-156.699997,,2013-01-03 09:53:00,
2013-01-03 03:00:00,24.0,5.0,-100.00,NW,317,1.0,2.0,42,-99.99,,,0.01,-156.699997,,2013-01-03 11:00:00,
2013-01-03 03:53:00,24.0,5.0,-100.00,NW,317,1.0,2.0,42,-99.99,,,0.01,-156.699997,,2013-01-03 11:53:00,
2013-01-03 04:00:00,24.0,7.0,-100.00,WNW,303,1.0,2.0,46,-99.99,,,0.01,-156.699997,,2013-01-03 12:00:00,
2013-01-03 04:53:00,24.0,7.0,-100.00,WNW,303,1.0,2.0,46,-99.99,,,0.01,-156.699997,,2013-01-03 12:53:00,
2013-01-03 06:00:00,22.0,-99.9,-100.00,North,-999,-999.0,-999.0,-999,-99.99,,,0.00,111.000000,,2013-01-03 14:00:00,
2013-01-03 06:54:00,22.0,-99.9,-100.00,North,-999,-999.0,-999.0,-999,-99.99,,,0.00,111.000000,,2013-01-03 14:54:00,
2013-01-03 08:00:00,23.0,17.0,-100.00,SW,236,0.0,1.0,78,-99.99,,,-99.99,-242.899994,,2013-01-03 16:00:00,
2013-01-03 08:53:00,23.0,17.0,-100.00,SW,236,0.0,1.0,78,-99.99,,,-99.99,-242.899994,,2013-01-03 16:53:00,
2013-01-03 09:00:00,21.0,11.0,-100.00,SE,140,1.0,2.0,67,-99.99,,,0.00,-104.000000,,2013-01-03 17:00:00,
2013-01-03 09:53:00,21.0,11.0,-100.00,SE,140,1.0,2.0,67,-99.99,,,0.00,-104.000000,,2013-01-03 17:53:00,
2013-01-03 10:00:00,25.0,15.0,-100.00,East,89,1.0,2.0,64,-99.99,,,0.00,-91.199997,,2013-01-03 18:00:00,
2013-01-03 10:53:00,25.0,15.0,-100.00,East,89,1.0,2.0,64,-99.99,,,0.00,-91.199997,,2013-01-03 18:53:00,
2013-01-03 11:00:00,33.0,-99.9,-100.00,North,-999,-999.0,-999.0,-999,-99.99,,,-99.99,119.300003,,2013-01-03 19:00:00,
2013-01-03 11:58:00,33.0,-99.9,-100.00,North,-999,-999.0,-999.0,-999,-99.99,,,-99.99,119.300003,,2013-01-03 19:58:00,
2013-01-03 12:00:00,30.0,12.0,-100.00,East,87,1.0,3.0,47,-99.99,,,0.00,78.900002,,2013-01-03 20:00:00,
2013-01-03 12:53:00,30.0,12.0,-100.00,East,87,1.0,3.0,47,-99.99,,,0.00,78.900002,,2013-01-03 20:53:00,
2013-01-03 13:00:00,26.0,10.0,-100.00,SW,228,2.0,3.0,50,-99.99,,,0.00,88.099998,,2013-01-03 21:00:00,
2013-01-03 14:00:00,31.0,16.0,-100.00,ENE,75,1.0,4.0,54,-99.99,,,0.00,99.599998,,2013-01-03 22:00:00,
2013-01-03 14:52:00,31.0,16.0,-100.00,ENE,75,1.0,4.0,54,-99.99,,,0.00,99.599998,,2013-01-03 22:52:00,
2013-01-03 15:00:00,24.0,12.0,-100.00,SW,230,1.0,3.0,59,-99.99,,,-99.99,104.400002,,2013-01-03 23:00:00,
2013-01-03 15:53:00,24.0,12.0,-100.00,SW,230,1.0,3.0,59,-99.99,,,-99.99,104.400002,,2013-01-03 23:53:00,
2013-01-03 16:00:00,17.0,14.0,-100.00,NW,326,1.0,3.0,88,-99.99,,,0.00,16.000000,,2013-01-04 00:00:00,
2013-01-03 16:53:00,17.0,14.0,-100.00,NW,326,1.0,3.0,88,-99.99,,,0.00,16.000000,,2013-01-04 00:53:00,
2013-01-03 17:00:00,21.0,13.0,-100.00,North,354,0.0,2.0,70,-99.99,,,-99.99,0.700000,,2013-01-04 01:00:00,
2013-01-03 17:52:00,21.0,13.0,-100.00,North,354,0.0,2.0,70,-99.99,,,-99.99,0.700000,,2013-01-04 01:52:00,
2013-01-03 18:00:00,20.0,10.0,-100.00,WNW,302,0.0,1.0,64,-99.99,,,0.00,-0.200000,,2013-01-04 02:00:00,
2013-01-03 18:53:00,20.0,10.0,-100.00,WNW,302,0.0,1.0,64,-99.99,,,0.00,-0.200000,,2013-01-04 02:53:00,
2013-01-03 19:00:00,19.0,9.0,-100.00,South,187,0.0,2.0,65,-99.99,,,-99.99,-0.200000,,2013-01-04 03:00:00,
2013-01-03 19:53:00,19.0,9.0,-100.00,South,187,0.0,2.0,65,-99.99,,,-99.99,-0.200000,,2013-01-04 03:53:00,
2013-01-03 20:00:00,18.0,11.0,-100.00,NNW,340,0.0,1.0,73,-99.99,,,0.00,-0.200000,,2013-01-04 04:00:00,
2013-01-03 20:52:00,18.0,11.0,-100.00,NNW,340,0.0,1.0,73,-99.99,,,0.00,-0.200000,,2013-01-04 04:52:00,
2013-01-03 21:00:00,22.0,14.0,-100.00,West,277,1.0,2.0,72,-99.99,,,-99.99,-0.200000,,2013-01-04 05:00:00,
2013-01-03 21:53:00,22.0,14.0,-100.00,West,277,1.0,2.0,72,-99.99,,,-99.99,-0.200000,,2013-01-04 05:53:00,
2013-01-03 22:00:00,23.0,16.0,-100.00,NW,316,0.0,2.0,75,-99.99,,,0.00,-0.200000,,2013-01-04 06:00:00,
2013-01-03 22:52:00,23.0,16.0,-100.00,NW,316,0.0,2.0,75,-99.99,,,0.00,-0.200000,,2013-01-04 06:52:00,
2013-01-03 23:00:00,24.0,20.0,-100.00,NNE,18,1.0,2.0,84,-99.99,,,0.00,-0.200000,,2013-01-04 07:00:00,
2013-01-03 23:52:00,24.0,20.0,-100.00,NNE,18,1.0,2.0,84,-99.99,,,0.00,-0.200000,,2013-01-04 07:52:00,